Wind_Speed
10 10 9 9 9 9 9 9 10 11 13 14 16 17 18 20 22 23 25 26 26 27 28 28 27 28 28 28 28 28 28 27 28 30 33 34 34 35 36 38 39 41 43
12 12 11 11 11 11 11 12 13 14 15 17 18 19 21 22 24 25 26 28 28 29 29 29 29 30 30 30 30 30 29 29 29 30 32 34 35 36 37 38 39 41 43
14 14 13 13 13 13 14 15 16 17 18 19 21 22 23 24 26 27 28 29 30 31 31 31 31 32 32 32 32 32 31 31 31 31 32 34 35 37 37 38 40 41 43
16 16 16 16 16 16 17 18 19 20 21 22 23 24 25 27 28 29 30 31 31 32 32 33 33 33 34 34 34 34 34 33 33 33 33 34 35 37 37 38 39 40 42
18 18 18 18 19 19 20 21 22 23 24 25 26 27 28 29 30 31 32 33 33 34 34 34 35 35 35 35 35 35 35 35 35 35 34 34 35 37 37 37 37 38 40
19 20 20 21 21 22 23 24 25 26 28 29 29 30 31 32 33 34 35 35 35 35 35 36 36 36 36 36 36 36 37 37 37 36 35 35 35 36 37 37 37 37 38
21 22 22 23 24 25 26 27 28 30 31 31 32 33 34 35 36 36 37 36 36 36 37 37 38 38 37 37 38 38 38 38 37 36 35 35 36 36 37 36 37 37 37
23 24 25 26 27 28 29 30 31 32 33 34 35 36 37 37 38 38 38 38 38 38 39 39 40 39 39 39 39 39 39 39 38 36 35 36 36 37 37 36 36 36 36
26 27 27 28 29 30 32 33 34 35 35 36 37 38 39 40 40 40 40 40 40 41 41 41 41 41 41 41 40 40 40 40 39 37 36 36 36 36 37 36 36 36 35
28 29 30 30 32 33 34 35 36 37 38 38 39 40 40 41 42 42 42 42 42 43 43 43 43 43 42 43 42 41 41 40 39 38 37 37 37 37 36 36 36 36 35
30 30 32 33 34 36 37 38 39 40 40 41 41 42 43 43 44 44 45 45 45 45 45 45 45 45 44 44 43 42 42 40 39 38 38 38 37 37 36 35 35 35 35
32 32 34 35 37 38 40 41 41 42 43 44 44 45 45 45 45 46 47 48 47 47 46 46 46 46 46 45 44 43 42 41 39 38 38 38 37 37 36 36 35 35 35
34 36 37 38 40 42 43 43 44 45 46 46 47 47 47 48 48 48 49 49 50 50 49 48 48 47 47 46 45 44 43 41 40 38 37 37 37 37 36 36 36 35 35
36 38 40 41 43 45 45 46 48 48 49 50 49 50 50 50 50 51 51 51 52 52 52 50 49 48 48 46 45 44 43 41 40 38 37 37 36 36 36 35 35 35 34
40 41 43 44 45 47 48 49 50 51 52 52 52 53 53 53 53 54 54 54 54 55 54 52 51 50 49 48 46 45 43 42 40 38 37 36 35 35 35 35 35 34 33
42 44 45 47 48 49 50 51 52 53 54 55 56 56 57 57 57 57 57 57 57 56 55 53 52 50 49 47 46 44 43 42 40 38 36 35 35 34 34 34 34 33 33
44 45 47 49 50 51 52 54 55 55 57 58 59 60 60 60 60 60 59 59 58 57 56 53 51 50 49 47 46 43 42 40 39 37 35 34 34 33 33 32 33 32 32
46 48 49 51 52 54 55 57 58 58 59 60 61 62 63 63 63 62 62 61 59 57 56 54 52 50 48 46 45 42 41 39 37 36 35 34 33 33 32 32 32 32 31
49 50 52 54 55 57 58 59 61 62 62 63 63 63 63 63 63 63 62 61 59 57 55 54 52 50 47 44 42 41 39 37 36 35 34 33 32 32 31 31 31 30 30
52 54 55 57 58 59 60 61 62 63 64 64 64 64 64 64 63 62 61 60 59 57 55 53 50 48 44 41 39 38 37 36 34 34 33 32 31 31 30 30 29 29 29
55 56 57 58 59 60 61 62 63 64 64 64 64 64 64 63 62 60 59 57 55 53 50 48 45 42 40 38 36 35 34 33 33 32 31 30 30 30 30 29 29 28 28
56 57 57 58 59 60 60 61 61 61 61 61 60 59 59 58 57 56 54 51 49 46 44 41 38 36 34 33 32 32 32 31 31 30 29 29 29 29 29 28 27 27 27
56 56 57 57 57 57 57 57 57 57 56 55 54 52 51 50 49 47 45 43 41 38 36 34 32 30 29 29 29 30 29 29 29 28 28 28 28 27 27 26 26 26 25
54 54 54 54 54 53 53 52 50 49 48 47 47 45 44 43 41 39 37 34 32 30 28 27 26 26 25 26 25 25 26 26 26 26 26 26 25 25 25 24 24 24 23
52 51 50 50 49 47 46 45 44 43 43 41 40 39 38 36 35 33 30 27 24 23 22 21 21 20 20 20 20 21 22 23 23 23 23 23 23 23 23 23 22 22 21
47 46 46 45 44 42 41 41 40 39 38 37 36 35 33 30 28 25 22 20 18 17 16 16 16 16 16 17 18 19 19 19 20 20 21 21 21 21 20 20 20 20 19
Wind_Direction
236 241 244 247 254 264 275 283 289 294 298 303 306 311 313 314 317 319 320 322 321 320 318 317 315 314 313 310 307 303 299 294 289 286 283 282 279 274 269 265 261 258 255
243 246 249 254 260 268 275 283 289 293 295 299 303 307 309 311 313 314 316 318 318 318 317 316 315 314 313 311 309 306 302 299 294 289 286 283 281 277 273 268 264 260 256
248 251 254 258 264 270 275 282 287 291 294 297 300 303 305 307 310 311 312 313 315 316 314 313 313 313 312 311 310 308 305 302 299 294 290 287 284 280 275 271 266 262 258
252 255 259 263 268 272 277 282 286 289 293 296 298 300 303 306 308 309 310 311 312 313 313 312 311 311 311 310 309 308 306 303 301 297 293 289 285 282 278 273 269 265 261
257 260 264 268 272 276 279 282 285 288 291 293 295 298 301 304 305 307 309 309 309 309 310 310 310 310 310 310 309 308 306 304 302 299 295 291 287 283 279 275 271 268 264
262 265 269 272 276 279 281 283 285 287 290 292 294 297 299 300 303 305 307 307 307 307 308 308 309 309 309 309 308 308 306 304 301 299 296 292 288 285 282 278 273 269 265
266 270 273 275 277 280 282 284 285 287 289 292 294 296 298 299 301 303 305 306 306 305 306 307 308 308 308 307 307 307 305 303 301 299 295 292 289 286 283 279 275 270 265
270 273 275 277 279 281 283 284 285 287 289 292 294 296 297 299 300 301 303 303 303 304 305 305 307 307 306 306 306 306 305 304 302 299 295 292 289 286 283 280 276 272 266
272 274 276 278 280 281 283 284 286 288 290 293 294 295 296 298 299 301 301 302 302 303 304 304 305 306 306 306 306 306 305 303 300 297 294 292 289 286 283 279 276 272 267
273 275 277 279 281 283 285 286 288 289 290 292 293 294 295 296 298 299 300 300 301 302 303 303 304 305 304 305 305 305 303 302 299 296 294 292 289 286 283 280 276 272 268
273 276 279 280 282 283 285 286 288 289 290 292 293 294 295 296 297 298 299 299 300 300 301 302 303 303 304 304 304 304 302 300 298 295 293 292 290 287 284 281 277 273 269
276 278 280 282 283 285 286 287 288 289 290 292 293 293 294 295 296 297 297 298 298 299 300 300 301 302 302 302 302 302 301 299 297 294 292 291 289 287 284 281 278 275 271
276 277 281 283 284 285 286 287 288 289 290 290 291 292 293 294 295 295 295 296 297 298 298 298 299 299 300 300 300 300 299 297 296 293 291 290 288 286 283 280 278 275 272
278 280 282 283 284 284 285 286 288 289 289 291 291 292 292 293 294 294 294 294 295 296 296 297 297 297 296 297 297 297 297 296 294 293 291 289 287 285 282 280 278 276 273
279 280 281 282 284 285 285 286 288 289 290 291 291 291 291 292 292 292 292 293 293 293 294 295 294 293 293 294 294 294 294 293 293 292 290 288 286 284 282 280 278 277 273
282 282 283 284 285 286 286 287 287 288 289 290 290 290 290 291 290 290 290 291 291 291 291 292 292 291 291 291 291 292 292 291 290 289 288 286 285 283 282 281 279 276 273
284 284 284 285 286 286 286 287 287 288 288 289 289 289 289 289 289 289 289 289 289 290 290 290 289 288 288 288 289 289 289 289 287 287 286 286 284 283 282 280 280 277 275
285 285 286 286 286 286 287 287 287 287 287 287 288 288 288 288 288 288 288 288 288 288 288 287 286 286 286 285 285 286 286 285 285 285 285 285 284 283 282 281 280 278 276
286 286 286 287 287 287 287 287 287 287 287 287 287 287 287 287 287 287 287 287 286 286 285 284 284 284 283 282 282 282 283 283 282 282 283 283 283 283 282 281 279 278 276
288 288 288 288 288 288 288 288 288 287 287 287 287 287 286 286 286 286 286 286 285 284 283 282 282 281 279 278 277 278 279 280 280 281 281 281 282 283 282 281 279 278 277
289 289 289 289 289 289 289 288 288 288 288 288 288 288 287 287 286 286 285 284 284 283 282 280 278 277 275 273 274 274 276 277 278 280 280 280 282 283 282 281 278 278 278
290 290 290 290 290 290 290 290 290 290 290 290 290 290 289 289 288 287 285 284 283 281 279 277 275 273 271 269 270 272 274 276 276 278 278 280 282 282 282 281 278 277 275
292 292 292 292 292 292 292 292 292 292 292 292 292 292 291 290 290 289 287 285 282 279 277 274 271 269 267 266 268 270 272 274 275 276 278 280 280 280 281 281 277 275 272
294 294 294 294 294 294 294 294 294 294 295 295 295 295 293 293 292 290 288 285 281 277 274 271 268 265 263 265 267 269 270 273 274 276 278 279 279 279 280 281 277 273 268
296 296 296 296 297 297 297 297 297 297 298 298 298 297 296 294 292 290 286 281 277 273 269 266 264 261 260 263 267 270 272 272 274 276 278 280 278 279 279 279 277 273 265
298 297 297 298 298 298 298 299 299 299 299 299 300 299 297 294 292 288 282 277 271 266 262 260 259 257 259 263 268 272 272 272 275 279 280 281 279 278 279 279 276 270 262
Height
5848 5848 5848 5848 5848 5848 5848 5847 5847 5846 5845 5844 5842 5841 5839 5837 5835 5832 5830 5827 5824 5821 5818 5815 5812 5809 5806 5803 5800 5798 5795 5793 5791 5788 5786 5784 5783 5783 5783 5784 5784 5785 5787
5844 5845 5844 5845 5845 5844 5844 5843 5843 5842 5841 5839 5838 5836 5834 5832 5830 5827 5824 5821 5818 5815 5812 5809 5805 5802 5799 5795 5792 5789 5787 5784 5782 5780 5777 5774 5773 5772 5772 5772 5772 5773 5775
5841 5841 5841 5841 5840 5840 5839 5839 5838 5837 5836 5834 5833 5831 5829 5826 5824 5821 5818 5815 5812 5809 5805 5802 5798 5795 5791 5788 5784 5781 5778 5775 5773 5770 5767 5764 5762 5760 5760 5760 5760 5761 5762
5837 5837 5836 5836 5835 5835 5834 5833 5832 5831 5830 5829 5827 5825 5823 5820 5817 5814 5811 5808 5805 5801 5798 5794 5791 5787 5783 5780 5776 5772 5768 5765 5762 5760 5757 5754 5752 5749 5748 5748 5748 5748 5749
5832 5832 5831 5831 5830 5829 5828 5827 5826 5825 5824 5822 5820 5818 5816 5813 5810 5807 5804 5800 5797 5793 5790 5786 5783 5779 5775 5771 5767 5763 5759 5755 5752 5749 5747 5744 5741 5738 5737 5736 5736 5736 5737
5826 5826 5825 5825 5824 5823 5822 5821 5820 5819 5817 5815 5813 5811 5808 5805 5802 5799 5796 5792 5789 5785 5781 5778 5774 5770 5766 5762 5758 5754 5750 5746 5742 5739 5736 5733 5730 5727 5726 5725 5725 5725 5725
5820 5819 5819 5818 5817 5816 5815 5814 5813 5811 5809 5807 5805 5803 5800 5797 5794 5791 5787 5784 5780 5776 5773 5769 5765 5761 5757 5753 5748 5744 5740 5735 5732 5729 5725 5722 5719 5716 5715 5714 5713 5713 5713
5813 5812 5811 5810 5809 5808 5807 5806 5804 5803 5801 5799 5796 5793 5791 5788 5785 5781 5778 5774 5771 5767 5763 5759 5755 5751 5746 5742 5738 5734 5729 5725 5721 5718 5715 5711 5708 5705 5703 5702 5701 5701 5701
5805 5804 5804 5803 5801 5800 5799 5797 5796 5794 5792 5789 5787 5784 5781 5778 5775 5771 5768 5764 5760 5757 5753 5749 5744 5740 5736 5731 5728 5723 5718 5714 5709 5706 5703 5700 5697 5694 5692 5691 5690 5689 5690
5797 5797 5795 5794 5793 5792 5790 5788 5786 5784 5782 5779 5777 5774 5771 5768 5764 5761 5757 5753 5750 5746 5742 5737 5733 5729 5725 5720 5716 5712 5707 5703 5699 5695 5692 5689 5686 5683 5681 5679 5678 5677 5678
5789 5788 5787 5785 5784 5782 5780 5778 5776 5774 5771 5769 5766 5763 5760 5757 5753 5749 5745 5741 5738 5734 5730 5726 5721 5717 5713 5708 5704 5700 5696 5692 5688 5684 5681 5677 5674 5671 5669 5668 5667 5666 5666
5780 5779 5777 5776 5774 5772 5770 5767 5765 5762 5760 5757 5754 5751 5748 5744 5741 5737 5733 5728 5725 5721 5718 5713 5709 5705 5700 5696 5692 5688 5683 5680 5676 5673 5669 5666 5662 5660 5658 5656 5655 5654 5654
5771 5769 5767 5765 5763 5761 5759 5756 5753 5750 5748 5745 5741 5739 5735 5732 5728 5724 5720 5715 5711 5707 5704 5700 5696 5692 5687 5683 5679 5675 5671 5667 5664 5661 5658 5654 5651 5649 5646 5645 5643 5642 5642
5761 5759 5756 5754 5752 5749 5747 5744 5741 5737 5734 5731 5728 5725 5722 5718 5714 5710 5705 5701 5697 5693 5689 5686 5682 5678 5674 5670 5666 5662 5659 5655 5652 5649 5646 5643 5640 5637 5635 5633 5632 5631 5631
5750 5747 5745 5742 5740 5737 5734 5731 5727 5724 5720 5717 5713 5710 5706 5704 5700 5695 5690 5687 5683 5678 5674 5671 5668 5664 5660 5657 5653 5650 5646 5643 5640 5637 5634 5632 5628 5626 5624 5622 5621 5619 5619
5738 5735 5732 5730 5727 5724 5720 5717 5713 5710 5706 5701 5697 5693 5690 5687 5683 5679 5675 5671 5667 5663 5659 5656 5653 5649 5646 5643 5640 5637 5633 5630 5627 5625 5622 5620 5617 5615 5613 5611 5609 5608 5607
5725 5722 5719 5716 5712 5709 5705 5702 5698 5694 5689 5685 5680 5676 5672 5669 5665 5661 5657 5653 5650 5646 5643 5640 5637 5634 5631 5628 5626 5623 5620 5617 5615 5613 5610 5608 5606 5604 5602 5600 5598 5597 5596
5711 5708 5705 5701 5697 5693 5689 5685 5681 5677 5674 5669 5664 5658 5654 5650 5646 5642 5638 5635 5632 5629 5625 5623 5621 5618 5616 5614 5611 5609 5607 5605 5603 5601 5599 5597 5595 5593 5591 5589 5587 5586 5585
5697 5693 5689 5685 5681 5677 5672 5668 5663 5658 5654 5650 5646 5641 5635 5631 5627 5623 5619 5615 5613 5611 5608 5606 5604 5602 5601 5599 5597 5596 5594 5593 5591 5589 5588 5586 5584 5582 5581 5579 5577 5576 5575
5681 5677 5672 5668 5664 5659 5654 5649 5644 5639 5634 5629 5625 5620 5615 5611 5608 5604 5600 5596 5593 5591 5590 5588 5587 5586 5585 5584 5584 5583 5582 5581 5579 5578 5576 5575 5573 5572 5570 5568 5567 5566 5564
5664 5660 5655 5650 5645 5640 5635 5629 5624 5619 5614 5609 5604 5599 5594 5590 5587 5584 5580 5577 5575 5573 5571 5571 5570 5570 5570 5571 5571 5570 5570 5569 5568 5567 5566 5565 5563 5562 5560 5558 5557 5556 5555
5647 5642 5637 5632 5627 5621 5616 5610 5604 5599 5594 5589 5584 5580 5575 5570 5567 5563 5561 5559 5557 5555 5555 5555 5555 5556 5557 5558 5558 5559 5559 5558 5558 5557 5556 5555 5553 5552 5550 5549 5548 5547 5546
5629 5624 5619 5614 5608 5603 5597 5591 5586 5581 5575 5570 5566 5562 5558 5553 5549 5546 5544 5542 5541 5540 5541 5542 5543 5544 5545 5547 5548 5548 5548 5548 5548 5547 5546 5545 5544 5542 5541 5540 5539 5538 5537
5612 5607 5602 5596 5591 5585 5580 5575 5569 5564 5559 5555 5551 5546 5542 5538 5535 5532 5530 5529 5529 5529 5530 5531 5533 5534 5536 5537 5538 5539 5539 5539 5539 5538 5537 5536 5535 5534 5532 5531 5530 5529 5529
5596 5591 5585 5580 5575 5570 5565 5560 5555 5551 5546 5542 5538 5534 5530 5526 5523 5521 5519 5519 5519 5520 5521 5522 5524 5526 5527 5529 5530 5531 5531 5531 5530 5529 5529 5528 5527 5525 5524 5523 5522 5522 5521
5580 5576 5571 5566 5561 5556 5552 5547 5543 5539 5534 5530 5526 5522 5518 5515 5513 5511 5511 5511 5512 5513 5514 5516 5518 5520 5521 5522 5523 5523 5523 5523 5523 5522 5521 5520 5519 5518 5517 5516 5515 5515 5515